Lid_Strength_Index
-1 -1 -1 -1 -1 -1 -1 -1 -1 -1 -1 -1 -0 0 0 0 1 2 6 5 4 2 4 6 7 7 9 10 9 10 12 12 12 12 11 10 10 9 8 7 6 6 6 4 3
-1 -1 -1 -1 -1 -1 -1 -1 -1 -1 -1 -1 -1 -1 0 0 4 5 2 1 1 2 8 7 9 9 11 11 10 11 12 11 9 10 10 9 9 9 8 8 9 7 4 3 3
-1 -1 -1 -1 -1 -1 -1 -1 -1 -1 -1 -1 -1 -1 -1 1 5 6 0 0 1 2 7 7 8 9 11 12 12 11 11 9 10 10 9 9 10 10 9 10 7 8 6 4 4
-1 -1 -1 -1 -1 -1 -1 -1 -1 -1 -1 -1 -1 -1 -1 1 11 3 -1 -1 -0 2 6 7 8 10 12 13 12 12 10 9 8 8 8 9 9 10 10 10 5 5 4 4 4
-1 -0 -1 -1 -1 -1 -1 -1 -1 -1 -0 -1 -1 -1 1 5 6 2 -1 -0 1 2 7 8 8 10 12 12 12 11 11 9 9 8 9 9 10 10 10 10 4 4 4 4 4
-0 -0 -0 -1 -1 -1 -1 -1 -1 -1 -1 -0 -1 -1 4 8 2 1 -0 1 3 4 5 8 9 8 11 11 13 10 10 10 10 10 9 10 11 10 10 7 5 5 5 4 4
-0 -0 -0 -1 -1 -1 -1 -1 -1 -1 -1 -1 -1 2 6 6 4 -0 -0 1 3 4 6 6 8 8 9 11 10 11 12 12 11 10 11 10 12 12 10 6 6 6 5 5 4
-0 -0 -0 -0 -1 -1 -1 -1 -1 -1 -1 -1 -1 4 9 3 3 1 1 1 2 2 4 6 8 8 10 10 12 12 12 14 12 11 11 11 13 11 10 8 8 7 6 5 5
-0 -0 -0 -0 -0 -0 -1 -1 -1 -1 -1 -1 3 6 9 3 5 4 1 3 3 4 4 6 8 10 11 13 16 16 16 15 14 11 12 12 13 11 11 10 11 11 9 7 5
-0 -0 -0 -0 -0 -0 -0 -1 -1 -1 -0 1 2 8 7 8 6 5 4 2 6 6 8 9 11 13 14 15 18 19 16 15 15 12 13 13 13 12 11 12 12 12 11 10 9
0 -0 -0 -0 -0 -1 0 1 5 6 4 8 7 8 8 6 5 6 4 6 7 9 13 12 14 15 14 15 14 15 13 14 14 12 13 13 13 12 12 12 13 13 12 10 8
0 -0 -0 -0 -0 -0 1 5 5 5 9 6 5 6 6 6 9 7 5 9 10 12 12 14 16 13 12 12 13 15 13 14 13 12 13 14 13 13 12 12 12 12 13 11 11
-0 0 -0 -0 -0 1 3 6 3 4 10 8 5 7 7 6 9 9 6 9 11 12 13 15 14 12 12 14 15 16 15 15 14 14 14 15 15 14 12 12 12 12 12 12 11
0 0 -0 -0 2 2 5 3 2 5 13 11 9 7 6 7 9 7 7 8 10 14 12 14 12 13 13 14 14 17 13 13 13 15 17 15 19 17 14 13 12 12 12 11 11
-0 -0 -0 -0 2 4 4 2 2 6 19 10 9 5 6 9 9 9 7 10 12 13 13 15 14 14 14 14 14 14 11 12 13 15 16 18 19 17 16 15 13 12 12 11 10
1 1 0 1 2 2 2 2 4 13 20 13 10 9 10 10 10 9 9 9 9 12 13 13 12 13 13 13 13 11 11 13 13 15 19 17 18 19 17 14 12 13 12 11 10
2 1 1 1 4 2 1 5 14 18 12 14 13 11 11 12 12 11 11 13 14 17 16 15 15 14 12 15 13 12 13 17 18 18 20 18 19 17 16 14 13 11 12 11 10
4 0 1 2 1 1 3 11 21 16 14 12 12 11 13 11 12 12 12 13 13 14 16 18 19 16 14 14 16 16 14 18 21 22 21 18 19 16 14 13 12 11 11 11 11
4 2 3 3 2 2 7 15 16 14 12 13 12 13 14 12 12 13 13 13 12 14 16 17 18 14 14 13 13 14 15 14 18 23 20 20 18 15 13 13 12 12 11 11 11
7 3 5 2 1 3 10 14 14 11 10 11 15 14 16 13 14 14 14 12 13 12 12 15 17 14 13 13 13 13 12 15 17 21 23 21 20 18 16 13 13 12 11 11 11
8 7 7 3 2 7 13 13 11 9 9 12 14 14 14 14 14 14 14 13 11 12 12 13 14 15 13 14 15 15 15 15 15 17 20 23 20 16 14 12 12 11 11 11 11
10 13 7 3 9 9 12 12 9 10 10 11 11 12 13 12 13 13 14 13 9 11 13 12 13 16 15 13 13 14 14 14 16 18 19 19 19 14 14 13 11 11 11 10 10
13 13 7 4 13 12 10 10 10 10 10 10 12 11 11 12 13 12 12 10 10 10 11 10 14 17 16 14 13 14 14 13 14 15 18 18 18 13 14 13 11 11 11 10 11
12 13 11 7 10 10 11 12 12 8 9 9 10 10 11 12 11 13 12 10 10 10 8 8 13 14 17 16 14 16 14 14 13 17 18 18 17 15 14 13 11 10 10 10 10
12 14 14 13 12 10 10 11 12 12 10 9 11 11 11 13 12 12 11 11 10 9 10 10 15 14 14 13 13 13 13 14 14 14 15 14 16 14 13 12 10 9 10 10 10
13 13 13 13 12 10 10 12 12 11 10 12 11 10 10 12 11 13 11 12 12 11 11 11 16 14 15 12 13 14 13 13 12 13 14 16 16 13 13 11 11 10 10 10 10
9 9 12 13 12 11 12 12 11 10 10 9 9 10 11 10 8 8 8 9 10 11 11 12 14 16 19 14 14 16 14 14 13 12 13 15 13 13 13 12 11 10 9 9 9